星链-5679 (STARLINK-5679 )

导读 | 星芒AI

STARLINK-5679 是 SpaceX 星链计划中的一颗低轨通信卫星,属于该计划的多个发射批次之一。该卫星旨在为全球用户提供高速互联网服务,尤其关注网络覆盖不足的地区。它运行在约 550 公里的轨道高度,配备先进通信设备,支持星间链路,提高数据传输效率。作为星链系统的一部分,STARLINK-5679 有助于构建全球宽带网络,推动远程教育、医疗和经济发展。

基本信息
目录编号:
55467
目录名称:
STARLINK-5679
国际标识:
2023-015U
轨道中心:
EARTH
卫星名称:
星链-5679
卫星全名:
星链-5679 (STARLINK-5679 )
卫星状态:
在轨 (已飞行1053 天)
发射日期:
2023-02-02 UTC
国别 :
美国 (US)
星等 :
--
轨道信息
数据来源 国际轨道数据
星历时间: 2025-12-21T12:13:44+0800
11小时前
查看轨道信息
半长轴: 6937.183km
偏心率: 0.0001295
轨道倾角: 43.004°
近地点辐角 271.962°
升交点赤经 32.601°
平近点角 88.107°
近地点: 558.147km
远地点: 559.945km
周期: 95.837分钟
每日圈数: 15.025471
详细信息
固有亮度:
5
最大亮度:
2.5
卫星平台:
Starlink v1.5
覆盖范围:
全球
运营商:
太空探索技术公司
运营商所在国:
美国
制造商(研发单位):
太空探索技术公司
制造商所在国:
美国
使用方式:
暂无
卫星简介
星链(Starlink)计划是由太空探索技术公司(SpaceX)提出的一个巨型低轨卫星互联网星座项目,计划在2019年至2024年间在太空搭建由约1.2万颗卫星组成的“星链”网络,其中1584颗将部署在地球上空550千米处的近地轨道,并从2020年开始工作。该卫星仍在工作。
2D轨道图
3D轨道图
轨道高度分析图
轨道倾角分析图
轨道综合分析图
查看轨道综合分析图